Time,TemperatureF,DewpointF,PressureIn,WindDirection,WindDirectionDegrees,WindSpeedMPH,WindSpeedGustMPH,Humidity,HourlyPrecipIn,Conditions,Clouds,dailyrainin,SoftwareType,DateUTC
2013-04-12 00:03:00,38.0,-99.9,-100.00,SSW,213,6.0,8.0,-999,0.00,,,0.03,,2013-04-12 05:03:00,
2013-04-12 00:12:00,38.0,-99.9,-100.00,SSW,213,6.0,8.0,-999,0.00,,,0.03,,2013-04-12 05:12:00,
2013-04-12 00:23:00,38.0,-99.9,-100.00,SSW,213,6.0,8.0,-999,0.00,,,0.03,,2013-04-12 05:23:00,
2013-04-12 00:32:00,37.0,-99.9,-100.00,SSW,212,6.0,9.0,-999,0.00,,,0.03,,2013-04-12 05:32:00,
2013-04-12 00:42:00,37.0,-99.9,-100.00,SSW,212,6.0,9.0,-999,0.00,,,0.03,,2013-04-12 05:42:00,
2013-04-12 00:52:00,37.0,-99.9,-100.00,SSW,212,6.0,9.0,-999,0.00,,,0.03,,2013-04-12 05:52:00,
2013-04-12 01:02:00,38.0,-99.9,-100.00,SW,219,5.0,7.0,-999,0.00,,,0.03,,2013-04-12 06:02:00,
2013-04-12 01:12:00,38.0,-99.9,-100.00,SW,219,5.0,7.0,-999,0.00,,,0.03,,2013-04-12 06:12:00,
2013-04-12 01:22:00,38.0,-99.9,-100.00,SW,219,5.0,7.0,-999,0.00,,,0.03,,2013-04-12 06:22:00,
2013-04-12 01:32:00,37.0,-99.9,-100.00,SSW,210,5.0,7.0,-999,0.00,,,0.03,,2013-04-12 06:32:00,
2013-04-12 01:42:00,37.0,-99.9,-100.00,SSW,210,5.0,7.0,-999,0.00,,,0.03,,2013-04-12 06:42:00,
2013-04-12 01:52:00,37.0,-99.9,-100.00,SSW,210,5.0,7.0,-999,0.00,,,0.03,,2013-04-12 06:52:00,
2013-04-12 02:02:00,37.0,-99.9,-100.00,SW,215,7.0,8.0,-999,0.00,,,0.03,,2013-04-12 07:02:00,
2013-04-12 02:12:00,37.0,-99.9,-100.00,SW,215,7.0,8.0,-999,0.00,,,0.03,,2013-04-12 07:12:00,
2013-04-12 02:22:00,37.0,-99.9,-100.00,SW,215,7.0,8.0,-999,0.00,,,0.03,,2013-04-12 07:22:00,
2013-04-12 02:32:00,37.0,-99.9,-100.00,SSW,206,6.0,8.0,-999,0.00,,,0.03,,2013-04-12 07:32:00,
2013-04-12 02:42:00,37.0,-99.9,-100.00,SSW,206,6.0,8.0,-999,0.00,,,0.03,,2013-04-12 07:42:00,
2013-04-12 02:52:00,37.0,-99.9,-100.00,SSW,206,6.0,8.0,-999,0.00,,,0.03,,2013-04-12 07:52:00,
2013-04-12 03:03:00,37.0,-99.9,-100.00,SSW,210,6.0,9.0,-999,0.00,,,0.03,,2013-04-12 08:03:00,
2013-04-12 03:12:00,37.0,-99.9,-100.00,SSW,210,6.0,9.0,-999,0.00,,,0.03,,2013-04-12 08:12:00,
2013-04-12 03:22:00,37.0,-99.9,-100.00,SSW,210,6.0,9.0,-999,0.00,,,0.03,,2013-04-12 08:22:00,
2013-04-12 03:32:00,37.0,-99.9,-100.00,SW,217,6.0,7.0,-999,0.00,,,0.03,,2013-04-12 08:32:00,
2013-04-12 03:43:00,37.0,-99.9,-100.00,SW,217,6.0,7.0,-999,0.00,,,0.03,,2013-04-12 08:43:00,
2013-04-12 03:53:00,37.0,-99.9,-100.00,SW,217,6.0,7.0,-999,0.00,,,0.03,,2013-04-12 08:53:00,
2013-04-12 04:02:00,38.0,-99.9,-100.00,SSW,211,5.0,7.0,-999,0.00,,,0.03,,2013-04-12 09:02:00,
2013-04-12 04:12:00,38.0,-99.9,-100.00,SSW,211,5.0,7.0,-999,0.00,,,0.03,,2013-04-12 09:12:00,
2013-04-12 04:22:00,38.0,-99.9,-100.00,SSW,211,5.0,7.0,-999,0.00,,,0.03,,2013-04-12 09:22:00,
2013-04-12 04:30:00,37.0,-99.9,-100.00,SW,227,6.0,9.0,-999,0.00,,,0.03,,2013-04-12 09:30:00,
2013-04-12 04:33:00,37.0,-99.9,-100.00,SW,214,6.0,8.0,-999,0.00,,,0.03,,2013-04-12 09:33:00,
2013-04-12 04:44:00,37.0,-99.9,-100.00,SW,214,6.0,8.0,-999,0.00,,,0.03,,2013-04-12 09:44:00,
2013-04-12 04:53:00,37.0,-99.9,-100.00,SW,214,6.0,8.0,-999,0.00,,,0.03,,2013-04-12 09:53:00,
2013-04-12 05:03:00,37.0,-99.9,-100.00,SW,227,6.0,9.0,-999,0.00,,,0.03,,2013-04-12 10:03:00,
2013-04-12 05:13:00,37.0,-99.9,-100.00,SW,227,6.0,9.0,-999,0.00,,,0.03,,2013-04-12 10:13:00,
2013-04-12 05:23:00,37.0,-99.9,-100.00,SW,227,6.0,9.0,-999,0.00,,,0.03,,2013-04-12 10:23:00,
2013-04-12 06:00:00,38.0,-99.9,-100.00,SW,217,6.0,7.0,-999,0.00,,,0.02,,2013-04-12 11:00:00,
2013-04-12 06:03:00,37.0,-99.9,-100.00,SW,220,6.0,7.0,-999,0.00,,,0.03,,2013-04-12 11:03:00,
2013-04-12 06:13:00,37.0,-99.9,-100.00,SW,220,6.0,7.0,-999,0.00,,,0.03,,2013-04-12 11:13:00,
2013-04-12 06:22:00,37.0,-99.9,-100.00,SW,220,6.0,7.0,-999,0.00,,,0.03,,2013-04-12 11:22:00,
2013-04-12 06:33:00,38.0,-99.9,-100.00,SW,217,6.0,7.0,-999,0.00,,,0.02,,2013-04-12 11:33:00,
2013-04-12 06:43:00,38.0,-99.9,-100.00,SW,217,6.0,7.0,-999,0.00,,,0.02,,2013-04-12 11:43:00,
2013-04-12 06:53:00,38.0,-99.9,-100.00,SW,217,6.0,7.0,-999,0.00,,,0.02,,2013-04-12 11:53:00,
2013-04-12 08:03:00,37.0,-99.9,-100.00,SW,221,6.0,8.0,-999,-99.99,,,0.02,,2013-04-12 13:03:00,
2013-04-12 08:13:00,37.0,-99.9,-100.00,SW,221,6.0,8.0,-999,-99.99,,,0.02,,2013-04-12 13:13:00,
2013-04-12 08:22:00,37.0,-99.9,-100.00,SW,221,6.0,8.0,-999,-99.99,,,0.02,,2013-04-12 13:22:00,
2013-04-12 08:33:00,38.0,-99.9,-100.00,SW,229,7.0,10.0,-999,0.00,,,0.02,,2013-04-12 13:33:00,
2013-04-12 08:43:00,38.0,-99.9,-100.00,SW,229,7.0,10.0,-999,0.00,,,0.02,,2013-04-12 13:43:00,
2013-04-12 08:53:00,38.0,-99.9,-100.00,SW,229,7.0,10.0,-999,0.00,,,0.02,,2013-04-12 13:53:00,
2013-04-12 09:04:00,38.0,-99.9,-100.00,SW,221,7.0,10.0,-999,0.00,,,0.01,,2013-04-12 14:04:00,
2013-04-12 09:13:00,38.0,-99.9,-100.00,SW,221,7.0,10.0,-999,0.00,,,0.01,,2013-04-12 14:13:00,
2013-04-12 09:23:00,38.0,-99.9,-100.00,SW,221,7.0,10.0,-999,0.00,,,0.01,,2013-04-12 14:23:00,
2013-04-12 09:30:00,39.0,-99.9,-100.00,WSW,243,10.0,15.0,-999,0.00,,,-99.99,,2013-04-12 14:30:00,
2013-04-12 09:33:00,39.0,-99.9,-100.00,WSW,248,14.0,16.0,-999,0.00,,,0.01,,2013-04-12 14:33:00,
2013-04-12 09:43:00,39.0,-99.9,-100.00,WSW,248,14.0,16.0,-999,0.00,,,0.01,,2013-04-12 14:43:00,
2013-04-12 09:54:00,39.0,-99.9,-100.00,WSW,248,14.0,16.0,-999,0.00,,,0.01,,2013-04-12 14:54:00,
2013-04-12 10:03:00,39.0,-99.9,-100.00,WSW,243,10.0,15.0,-999,0.00,,,-99.99,,2013-04-12 15:03:00,
2013-04-12 10:12:00,39.0,-99.9,-100.00,WSW,243,10.0,15.0,-999,0.00,,,-99.99,,2013-04-12 15:12:00,
2013-04-12 10:22:00,39.0,-99.9,-100.00,WSW,243,10.0,15.0,-999,0.00,,,-99.99,,2013-04-12 15:22:00,
2013-04-12 11:04:00,40.0,-99.9,-100.00,West,268,9.0,19.0,-999,0.00,,,-99.99,,2013-04-12 16:04:00,
2013-04-12 11:14:00,40.0,-99.9,-100.00,West,268,9.0,19.0,-999,0.00,,,-99.99,,2013-04-12 16:14:00,
2013-04-12 11:23:00,40.0,-99.9,-100.00,West,268,9.0,19.0,-999,0.00,,,-99.99,,2013-04-12 16:23:00,
2013-04-12 11:34:00,40.0,-99.9,-100.00,WSW,237,10.0,19.0,-999,0.00,,,0.01,,2013-04-12 16:34:00,
2013-04-12 11:43:00,40.0,-99.9,-100.00,WSW,237,10.0,19.0,-999,0.00,,,0.01,,2013-04-12 16:43:00,
2013-04-12 11:53:00,40.0,-99.9,-100.00,WSW,237,10.0,19.0,-999,0.00,,,0.01,,2013-04-12 16:53:00,
2013-04-12 12:00:00,40.0,-99.9,-100.00,WSW,245,12.0,25.0,-999,0.00,,,0.01,,2013-04-12 17:00:00,
2013-04-12 12:04:00,40.0,-99.9,-100.00,West,260,14.0,18.0,-999,0.00,,,0.01,,2013-04-12 17:04:00,
2013-04-12 12:13:00,40.0,-99.9,-100.00,West,260,14.0,18.0,-999,0.00,,,0.01,,2013-04-12 17:13:00,
2013-04-12 12:23:00,40.0,-99.9,-100.00,West,260,14.0,18.0,-999,0.00,,,0.01,,2013-04-12 17:23:00,
2013-04-12 12:34:00,40.0,-99.9,-100.00,WSW,245,12.0,25.0,-999,0.00,,,0.01,,2013-04-12 17:34:00,
2013-04-12 12:47:00,40.0,-99.9,-100.00,WSW,245,12.0,25.0,-999,0.00,,,0.01,,2013-04-12 17:47:00,
2013-04-12 13:13:00,40.0,-99.9,-100.00,WSW,257,15.0,18.0,-999,0.00,,,0.01,,2013-04-12 18:13:00,
2013-04-12 14:27:00,40.0,-99.9,-100.00,West,261,10.0,14.0,-999,0.00,,,0.01,,2013-04-12 19:27:00,
2013-04-12 14:33:00,40.0,-99.9,-100.00,WSW,257,12.0,19.0,-999,0.01,,,0.02,,2013-04-12 19:33:00,
2013-04-12 14:43:00,40.0,-99.9,-100.00,WSW,257,12.0,19.0,-999,0.01,,,0.02,,2013-04-12 19:43:00,
2013-04-12 14:53:00,40.0,-99.9,-100.00,WSW,257,12.0,19.0,-999,0.01,,,0.02,,2013-04-12 19:53:00,
2013-04-12 15:02:00,40.0,-99.9,-100.00,West,274,8.0,15.0,-999,0.01,,,0.02,,2013-04-12 20:02:00,
2013-04-12 15:13:00,40.0,-99.9,-100.00,West,274,8.0,15.0,-999,0.01,,,0.02,,2013-04-12 20:13:00,
2013-04-12 15:22:00,40.0,-99.9,-100.00,West,274,8.0,15.0,-999,0.01,,,0.02,,2013-04-12 20:22:00,
2013-04-12 15:33:00,41.0,-99.9,-100.00,WSW,254,11.0,18.0,-999,0.00,,,0.01,,2013-04-12 20:33:00,
2013-04-12 15:43:00,41.0,-99.9,-100.00,WSW,254,11.0,18.0,-999,0.00,,,0.01,,2013-04-12 20:43:00,
2013-04-12 15:53:00,41.0,-99.9,-100.00,WSW,254,11.0,18.0,-999,0.00,,,0.01,,2013-04-12 20:53:00,
2013-04-12 16:03:00,41.0,-99.9,-100.00,West,259,11.0,20.0,-999,0.00,,,0.01,,2013-04-12 21:03:00,
2013-04-12 16:12:00,41.0,-99.9,-100.00,West,259,11.0,20.0,-999,0.00,,,0.01,,2013-04-12 21:12:00,
2013-04-12 16:22:00,41.0,-99.9,-100.00,West,259,11.0,20.0,-999,0.00,,,0.01,,2013-04-12 21:22:00,
2013-04-12 16:33:00,42.0,-99.9,-100.00,WSW,249,10.0,19.0,-999,0.00,,,0.01,,2013-04-12 21:33:00,
2013-04-12 16:43:00,42.0,-99.9,-100.00,WSW,249,10.0,19.0,-999,0.00,,,0.01,,2013-04-12 21:43:00,
2013-04-12 16:53:00,42.0,-99.9,-100.00,WSW,249,10.0,19.0,-999,0.00,,,0.01,,2013-04-12 21:53:00,
2013-04-12 17:03:00,42.0,-99.9,-100.00,WSW,250,16.0,18.0,-999,0.00,,,0.01,,2013-04-12 22:03:00,
2013-04-12 17:13:00,42.0,-99.9,-100.00,WSW,250,16.0,18.0,-999,0.00,,,0.01,,2013-04-12 22:13:00,
2013-04-12 17:23:00,42.0,-99.9,-100.00,WSW,250,16.0,18.0,-999,0.00,,,0.01,,2013-04-12 22:23:00,
2013-04-12 17:33:00,43.0,-99.9,-100.00,West,260,11.0,15.0,-999,0.00,,,0.01,,2013-04-12 22:33:00,
2013-04-12 17:43:00,43.0,-99.9,-100.00,West,260,11.0,15.0,-999,0.00,,,0.01,,2013-04-12 22:43:00,
2013-04-12 17:53:00,43.0,-99.9,-100.00,West,260,11.0,15.0,-999,0.00,,,0.01,,2013-04-12 22:53:00,
2013-04-12 18:00:00,43.0,-99.9,-100.00,WSW,243,12.0,16.0,-999,0.00,,,0.01,,2013-04-12 23:00:00,
2013-04-12 18:04:00,42.0,-99.9,-100.00,WSW,255,8.0,15.0,-999,0.00,,,0.01,,2013-04-12 23:04:00,
2013-04-12 18:12:00,42.0,-99.9,-100.00,WSW,255,8.0,15.0,-999,0.00,,,0.01,,2013-04-12 23:12:00,
2013-04-12 18:22:00,42.0,-99.9,-100.00,WSW,255,8.0,15.0,-999,0.00,,,0.01,,2013-04-12 23:22:00,
2013-04-12 18:32:00,43.0,-99.9,-100.00,WSW,243,12.0,16.0,-999,0.00,,,0.01,,2013-04-12 23:32:00,
2013-04-12 18:43:00,43.0,-99.9,-100.00,WSW,243,12.0,16.0,-999,0.00,,,0.01,,2013-04-12 23:43:00,
2013-04-12 18:52:00,43.0,-99.9,-100.00,WSW,243,12.0,16.0,-999,0.00,,,0.01,,2013-04-12 23:52:00,
2013-04-12 20:02:00,41.0,-99.9,-100.00,WSW,254,8.0,18.0,-999,-99.99,,,0.01,,2013-04-13 01:02:00,
2013-04-12 20:13:00,41.0,-99.9,-100.00,WSW,254,8.0,18.0,-999,-99.99,,,0.01,,2013-04-13 01:13:00,
2013-04-12 20:23:00,41.0,-99.9,-100.00,WSW,254,8.0,18.0,-999,-99.99,,,0.01,,2013-04-13 01:23:00,
2013-04-12 20:33:00,41.0,-99.9,-100.00,West,268,6.0,11.0,-999,0.00,,,0.01,,2013-04-13 01:33:00,
2013-04-12 20:43:00,41.0,-99.9,-100.00,West,268,6.0,11.0,-999,0.00,,,0.01,,2013-04-13 01:43:00,
2013-04-12 20:52:00,41.0,-99.9,-100.00,West,268,6.0,11.0,-999,0.00,,,0.01,,2013-04-13 01:52:00,
2013-04-12 21:02:00,41.0,-99.9,-100.00,WSW,249,8.0,12.0,-999,0.00,,,0.01,,2013-04-13 02:02:00,
2013-04-12 21:12:00,41.0,-99.9,-100.00,WSW,249,8.0,12.0,-999,0.00,,,0.01,,2013-04-13 02:12:00,
2013-04-12 21:23:00,41.0,-99.9,-100.00,WSW,249,8.0,12.0,-999,0.00,,,0.01,,2013-04-13 02:23:00,
2013-04-12 21:33:00,41.0,-99.9,-100.00,WSW,254,7.0,12.0,-999,0.00,,,0.01,,2013-04-13 02:33:00,
2013-04-12 21:43:00,41.0,-99.9,-100.00,WSW,254,7.0,12.0,-999,0.00,,,0.01,,2013-04-13 02:43:00,
2013-04-12 21:53:00,41.0,-99.9,-100.00,WSW,254,7.0,12.0,-999,0.00,,,0.01,,2013-04-13 02:53:00,
2013-04-12 22:03:00,40.0,-99.9,-100.00,WSW,257,7.0,13.0,-999,0.00,,,0.01,,2013-04-13 03:03:00,
2013-04-12 22:12:00,40.0,-99.9,-100.00,WSW,257,7.0,13.0,-999,0.00,,,0.01,,2013-04-13 03:12:00,
2013-04-12 22:23:00,40.0,-99.9,-100.00,WSW,257,7.0,13.0,-999,0.00,,,0.01,,2013-04-13 03:23:00,
2013-04-12 22:33:00,40.0,-99.9,-100.00,West,280,7.0,10.0,-999,0.00,,,0.01,,2013-04-13 03:33:00,
2013-04-12 22:43:00,40.0,-99.9,-100.00,West,280,7.0,10.0,-999,0.00,,,0.01,,2013-04-13 03:43:00,
2013-04-12 22:54:00,40.0,-99.9,-100.00,West,280,7.0,10.0,-999,0.00,,,0.01,,2013-04-13 03:54:00,
2013-04-12 23:00:00,38.0,-99.9,-100.00,WSW,248,10.0,11.0,-999,0.00,,,0.01,,2013-04-13 04:00:00,
2013-04-12 23:03:00,39.0,-99.9,-100.00,WSW,246,11.0,16.0,-999,0.00,,,0.01,,2013-04-13 04:03:00,
2013-04-12 23:12:00,39.0,-99.9,-100.00,WSW,246,11.0,16.0,-999,0.00,,,0.01,,2013-04-13 04:12:00,
2013-04-12 23:23:00,39.0,-99.9,-100.00,WSW,246,11.0,16.0,-999,0.00,,,0.01,,2013-04-13 04:23:00,
2013-04-12 23:33:00,38.0,-99.9,-100.00,WSW,248,10.0,11.0,-999,0.00,,,0.01,,2013-04-13 04:33:00,
2013-04-12 23:43:00,38.0,-99.9,-100.00,WSW,248,10.0,11.0,-999,0.00,,,0.01,,2013-04-13 04:43:00,
2013-04-12 23:53:00,38.0,-99.9,-100.00,WSW,248,10.0,11.0,-999,0.00,,,0.01,,2013-04-13 04:53:00,